Regional Weather Roundup
Issued by NWS Charleston, SC

Current Version | Previous Version | Text Only | Print | Product List | Glossary Off
Versions: 1 2 3 4 5 6 7 8 9 10 11 12 13 14 15 16 17 18 19 20 21 22 23 24 25 26 27 28 29 30 31 32 33 34 35 36 37 38 39 40 41 42 43 44 45 46 47 48 49 50
000 ASUS42 KCHS 301226 RWRCHS REGIONAL WEATHER ROUNDUP NATIONAL WEATHER SERVICE CHARLESTON SC 800 AM EDT SUN AUG 30 2015 NOTE: "FAIR" INDICATES FEW OR NO CLOUDS BELOW 12,000 FEET WITH NO SIGNIFICANT WEATHER AND/OR OBSTRUCTIONS TO VISIBILITY. NOT ALL STATIONS ARE QUALITY CONTROLLED BY THE NATIONAL WEATHER SERVICE. USE DATA WITH CAUTION...ESPECIALLY DEWPOINT OBSERVATIONS. SCZ027-030-031-034>040-042>050-301300- ...SOUTHEAST SOUTH CAROLINA... CITY SKY/WX TMP DP RH WIND PRES REMARKS N CHARLESTON CLOUDY 75 72 90 NW3 30.09F 6HR MIN TEMP: 73; 6HR MAX TEMP: 75; 6HR PCP: 0.16; WATERFRONT PRK N/A 76 74 93 VRB3 30.07F MOUNT PLEASANT LGT RAIN 73 73 100 CALM 30.09F JOHNS ISLAND FAIR 75 73 94 CALM 30.09S PINOPOLIS N/A 75 72 88 CALM 30.01 MONCKS CORNER FAIR 73 70 88 CALM 30.10S SUMMERVILLE FAIR 72 72 100 N3 30.10F BEAUFORT MCAS CLOUDY 75 74 96 NE5 30.08F 6HR MIN TEMP: 73; 6HR MAX TEMP: 76; 6HR PCP: 0.30; BEAUFORT ARPT FAIR 75 75 100 CALM 30.07F FOG HILTON HEAD IS PTSUNNY 75 73 94 N5 30.09F WALTERBORO LGT RAIN 73 72 94 E3 30.10F ALLENDALE LGT RAIN 70 70 100 CALM 30.09S ...SOUTHERN MIDLANDS AND PEE DEE... CITY SKY/WX TMP DP RH WIND PRES REMARKS GEORGETOWN NOT AVBL KINGSTREE NOT AVBL ORANGEBURG LGT RAIN 69 66 90 CALM 30.12S 6HR MIN TEMP: 69; 6HR MAX TEMP: 72; 6HR PCP: 0.03; BARNWELL DRIZZLE 72 70 94 NE6 30.11S AIKEN LGT RAIN 66 63 88 NE5 30.16S MANNING FAIR 70 64 83 CALM 30.12R COLUMBIA LGT RAIN 74 62 66 CALM 30.13R 6HR MIN TEMP: 72; 6HR MAX TEMP: 75; 6HR PCP: TRACE; SUMTER CLOUDY 70 62 75 NE5 30.11F 6HR MIN TEMP: 67; 6HR MAX TEMP: 70; FLORENCE CLOUDY 71 64 78 N5 30.13S 6HR MIN TEMP: 68; 6HR MAX TEMP: 71; MYRTLE BEACH PTSUNNY 75 68 78 N8 30.13S N MYRTLE BEACH CLOUDY 73 71 93 NE3 30.12S 6HR MIN TEMP: 72; 6HR MAX TEMP: 74; 6HR PCP: 0.02; $$ GAZ063-065-086>088-099>101-113>116-118-119-134>141-150-301300- ...SOUTHEAST GEORGIA... CITY SKY/WX TMP DP RH WIND PRES REMARKS SAVANNAH ARPT CLOUDY 73 70 90 E6 30.09R 6HR MIN TEMP: 72; 6HR MAX TEMP: 76; 6HR PCP: 0.08; HUNTER AAF CLOUDY 73 73 100 VRB2 30.05S 6HR MIN TEMP: 72; 6HR MAX TEMP: 77; 6HR PCP: 0.58; FORT STEWART CLOUDY 72 71 94 CALM 30.05R 6HR MIN TEMP: 72; 6HR MAX TEMP: 75; 6HR PCP: 0.31; STATESBORO LGT RAIN 71 32 23 CALM 30.10R SYLVANIA DRIZZLE 73 73 100 CALM 30.11R CLAXTON NOT AVBL ...CSRA...CENTRAL AND FAR SOUTHEAST GEORGIA... CITY SKY/WX TMP DP RH WIND PRES REMARKS THOMSON CLOUDY 68 67 96 CALM 30.17R AUGUSTA-BUSH LGT RAIN 70 68 93 CALM 30.11R 6HR MIN TEMP: 69; 6HR MAX TEMP: 72; 6HR PCP: 0.03; AUGUSTA-DANIEL LGT RAIN 80 65 59 NE7 30.13R SWAINSBORO CLOUDY N/A N/A N/A CALM 30.11R VIDALIA LGT RAIN 73 72 94 CALM 30.09S EASTMAN CLOUDY 73 73 100 CALM 30.11R HAZLEHURST PTSUNNY 74 74 100 CALM 30.08R FOG ALMA CLOUDY 74 72 93 CALM 30.07R 6HR MIN TEMP: 73; 6HR MAX TEMP: 74; WAYCROSS CLOUDY 78 77 98 N3 30.06F JESUP FAIR 75 73 94 CALM 30.07R BAXLEY FAIR 73 73 100 CALM 30.08S BRUNSWICK CLOUDY 73 72 94 CALM 30.06S SAINT SIMONS CLOUDY 79 72 79 SE6 30.05R 6HR MIN TEMP: 75; 6HR MAX TEMP: 81; 6HR PCP: 0.03; $$ SCZ027-028-034-036>038-045-046-048>050-GAZ119-141-301300- ...LAKE AND SUPPLEMENTAL COASTAL OBSERVATIONS... STATION/POSITION TIME TEMP WIND PRES WAVE SWELL AIR SEA DIR/SP/G HT/PER HT/PER/DIR (UTC) (F) (DEG/KT/KT) (MB) (FT/S) (FT/S/D) UPR LAKE MARION NOT AVBL WINYAH BAY 1145 76 190/ 2 1019.0R LAKE MURRAY 1100 72 30/ 2/ 3 1020.0R ACE BASIN NERRS NOT AVBL FORT PULASKI NOT AVBL SAPELO ISLAND 1200 76 80/ 3 1018.0S $$ ANZ835-935-AMZ111-154-330-350-352-354-370-450-454-472-301300- ...C-MAN AND BUOY OBSERVATIONS... STATION/POSITION TIME TEMP WIND PRES WAVE SWELL AIR SEA DIR/SP/G HT/PER HT/PER/DIR (UTC) (F) (DEG/KT/KT) (MB) (FT/S) (FT/S/D) BUOY 41004 1150 79 85 40/ 4/ 6 1018.9R 4/11 3/11 BUOY 41008 1150 81 84 130/ 6/ 8 1018.0S 5/11 5/ 90/11 FOLLY BEACH CMAN 1200 75 310/ 2/ 3 1019.1S CAPERS NEARSHORE NOT AVBL FRIPP NEARSHORE NOT AVBL STATION/POSITION TIME TEMP WIND PRES WAVE SWELL AIR SEA DIR/SP/G HT/PER HT/PER/DIR (UTC) (F) (DEG/KT/KT) (MB) (FT/S) (FT/S/D) 5E ST. MARYS GA 1121 86 N/A 5/10 2/110/11 FRYING PAN BUOY 1150 81 82 40/ 6/ 8 1020.4R 4/11 3/120/11 BUOY 41025 1150 78 83 330/ 8/ 12 1020.0R 4/10 3/110/10 CAPE LOOKOUT NC 1200 75 350/ 11/ 13 1020.0R BUOY 41002 1150 84 83 230/ 4/ 6 1020.4R 4/11 3/130/11 BUOY 41010 1120 85 85 120/ 17/ 21 1016.6F ST AUGUSTINE FL 1200 82 83 120/ 17/ 18 1017.5R $$

USA.gov is the U.S. government's official web portal to all federal, state and local government web resources and services.